When you browse on this site, cookies collect data to enhance your experience and personalize the content and advertising you see.
Visit our Privacy Policy to learn more. By continuing to use the site, you agree to this use of cookies and data.
  • în România
  • Lista ţărilor
  • Pe 7 zile
  • Temperatura apei
  • Hartă satelitară
  • Meteo pe hartă
  • Widget-uri
  • user-avatar
    Intrare

    Meteo pe oră la Ambarnyy

    Astăzi, 25 Aprilie, Joi

    Timp Temperatura Precipitaţii Vânt Presiune Umiditate
    00:00 +5°C° 0 mm 1 m/s 762 mmHg 94%
    01:00 +4°C° 0 mm 1 m/s 762 mmHg 95%
    02:00 +5°C° 0 mm 1 m/s 763 mmHg 96%
    03:00 +5°C° 0 mm 1 m/s 763 mmHg 95%
    04:00 +5°C° 0 mm 1 m/s 763 mmHg 95%
    05:00 +5°C° 0 mm 1 m/s 763 mmHg 95%
    06:00 +4°C° 0 mm 2 m/s 763 mmHg 93%
    07:00 +5°C° 0 mm 2 m/s 763 mmHg 90%
    08:00 +5°C° 0 mm 2 m/s 764 mmHg 88%
    09:00 +5°C° 0 mm 2 m/s 763 mmHg 86%
    10:00 +6°C° 0 mm 2 m/s 763 mmHg 84%
    11:00 +6°C° 0 mm 2 m/s 763 mmHg 82%
    12:00 +5°C° 0 mm 3 m/s 763 mmHg 81%
    13:00 +7°C° 0 mm 3 m/s 763 mmHg 79%
    14:00 +7°C° 0 mm 3 m/s 763 mmHg 77%
    15:00 +7°C° 0 mm 3 m/s 763 mmHg 76%
    16:00 +7°C° 0 mm 3 m/s 763 mmHg 76%
    17:00 +7°C° 0 mm 3 m/s 762 mmHg 75%
    18:00 +5°C° 0 mm 3 m/s 762 mmHg 77%
    19:00 +4°C° 0 mm 3 m/s 762 mmHg 80%
    20:00 +3°C° 0 mm 3 m/s 762 mmHg 82%
    21:00 +2°C° 0 mm 3 m/s 762 mmHg 83%
    22:00 +2°C° 0 mm 3 m/s 761 mmHg 84%
    23:00 +2°C° 0 mm 3 m/s 761 mmHg 85%

    Mâine, 26 Aprilie, Vineri

    Timp Temperatura Precipitaţii Vânt Presiune Umiditate
    00:00 +3°C° 0 mm 2 m/s 761 mmHg 87%
    01:00 +3°C° 0 mm 2 m/s 761 mmHg 89%
    02:00 +3°C° 0 mm 2 m/s 760 mmHg 91%
    03:00 +4°C° 0 mm 2 m/s 760 mmHg 92%
    04:00 +4°C° 0 mm 2 m/s 759 mmHg 93%
    05:00 +4°C° 0 mm 2 m/s 758 mmHg 94%
    06:00 +6°C° 0 mm 2 m/s 758 mmHg 89%
    07:00 +7°C° 0 mm 2 m/s 757 mmHg 84%
    08:00 +9°C° 0 mm 2 m/s 757 mmHg 80%
    09:00 +10°C° 0 mm 2 m/s 756 mmHg 74%
    10:00 +13°C° 0 mm 2 m/s 756 mmHg 69%
    11:00 +14°C° 0 mm 2 m/s 755 mmHg 64%
    12:00 +14°C° 0 mm 3 m/s 755 mmHg 60%
    13:00 +14°C° 0 mm 3 m/s 754 mmHg 56%
    14:00 +14°C° 0 mm 3 m/s 754 mmHg 52%
    15:00 +13°C° 0 mm 3 m/s 754 mmHg 59%
    16:00 +12°C° 0 mm 3 m/s 753 mmHg 66%
    17:00 +10°C° 0 mm 3 m/s 753 mmHg 73%
    18:00 +9°C° 0 mm 3 m/s 753 mmHg 77%
    19:00 +8°C° 0 mm 3 m/s 753 mmHg 82%
    20:00 +5°C° 0 mm 3 m/s 753 mmHg 86%
    21:00 +5°C° 0 mm 3 m/s 753 mmHg 86%
    22:00 +4°C° 0 mm 3 m/s 754 mmHg 86%
    23:00 +5°C° 0 mm 2 m/s 754 mmHg 86%

    Poimâine, 27 Aprilie, Sâmbătă

    Timp Temperatura Precipitaţii Vânt Presiune Umiditate
    00:00 +3°C° 0 mm 3 m/s 754 mmHg 88%
    01:00 +3°C° 0 mm 3 m/s 754 mmHg 89%
    02:00 +3°C° 0 mm 3 m/s 755 mmHg 90%
    03:00 +2°C° 0 mm 3 m/s 755 mmHg 88%
    04:00 +1°C° 0 mm 3 m/s 755 mmHg 86%
    05:00 0°C° 0 mm 3 m/s 756 mmHg 84%
    06:00 0°C° 0 mm 3 m/s 756 mmHg 81%
    07:00 0°C° 0 mm 3 m/s 757 mmHg 78%
    08:00 0°C° 0 mm 3 m/s 757 mmHg 74%
    09:00 +1°C° 0 mm 3 m/s 758 mmHg 69%
    10:00 +2°C° 0 mm 3 m/s 758 mmHg 65%
    11:00 +3°C° 0 mm 3 m/s 759 mmHg 60%
    12:00 +4°C° 0 mm 3 m/s 759 mmHg 58%
    13:00 +4°C° 0 mm 3 m/s 760 mmHg 56%
    14:00 +4°C° 0 mm 3 m/s 760 mmHg 54%
    15:00 +4°C° 0 mm 4 m/s 760 mmHg 55%
    16:00 +3°C° 0 mm 4 m/s 761 mmHg 55%
    17:00 +2°C° 0 mm 5 m/s 761 mmHg 56%
    18:00 0°C° 0 mm 4 m/s 761 mmHg 59%
    19:00 0°C° 0 mm 3 m/s 762 mmHg 63%
    20:00 -1°C° 0 mm 2 m/s 762 mmHg 66%
    21:00 -1°C° 0 mm 2 m/s 763 mmHg 67%
    22:00 -2°C° 0 mm 2 m/s 763 mmHg 69%
    23:00 -2°C° 0 mm 2 m/s 764 mmHg 70%

    28 Aprilie, Duminică

    Timp Temperatura Precipitaţii Vânt Presiune Umiditate
    00:00 0°C° 0 mm 1 m/s 764 mmHg 70%
    01:00 -1°C° 0 mm 1 m/s 764 mmHg 70%
    02:00 -1°C° 0 mm 1 m/s 765 mmHg 70%
    03:00 -1°C° 0 mm 1 m/s 765 mmHg 69%
    04:00 0°C° 0 mm 1 m/s 765 mmHg 68%
    05:00 -2°C° 0 mm 2 m/s 765 mmHg 67%
    06:00 -1°C° 0 mm 2 m/s 765 mmHg 62%
    07:00 -1°C° 0 mm 2 m/s 765 mmHg 56%
    08:00 +1°C° 0 mm 2 m/s 766 mmHg 51%
    09:00 +2°C° 0 mm 2 m/s 766 mmHg 48%
    10:00 +3°C° 0 mm 2 m/s 765 mmHg 46%
    11:00 +3°C° 0 mm 2 m/s 765 mmHg 43%
    12:00 +4°C° 0 mm 2 m/s 765 mmHg 42%
    13:00 +5°C° 0 mm 1 m/s 765 mmHg 42%
    14:00 +6°C° 0 mm 1 m/s 765 mmHg 41%
    15:00 +6°C° 0 mm 1 m/s 765 mmHg 42%
    16:00 +6°C° 0 mm 1 m/s 764 mmHg 42%
    17:00 +6°C° 0 mm 1 m/s 764 mmHg 43%
    18:00 +5°C° 0 mm 1 m/s 764 mmHg 49%
    19:00 +3°C° 0 mm 1 m/s 764 mmHg 55%
    20:00 +1°C° 0 mm 2 m/s 764 mmHg 60%
    21:00 +1°C° 0 mm 2 m/s 763 mmHg 61%
    22:00 +1°C° 0 mm 2 m/s 763 mmHg 62%
    23:00 -1°C° 0 mm 2 m/s 763 mmHg 63%

    29 Aprilie, Luni

    Timp Temperatura Precipitaţii Vânt Presiune Umiditate
    00:00 0°C° 0 mm 3 m/s 763 mmHg 62%
    01:00 0°C° 0 mm 3 m/s 763 mmHg 61%
    02:00 +1°C° 0 mm 3 m/s 762 mmHg 60%
    03:00 +1°C° 0 mm 3 m/s 762 mmHg 63%
    04:00 +2°C° 0 mm 2 m/s 761 mmHg 66%
    05:00 +3°C° 0 mm 2 m/s 761 mmHg 69%
    06:00 +2°C° 0 mm 3 m/s 760 mmHg 67%
    07:00 +3°C° 0 mm 3 m/s 760 mmHg 64%
    08:00 +4°C° 0 mm 3 m/s 759 mmHg 61%
    09:00 +5°C° 0 mm 3 m/s 759 mmHg 58%
    10:00 +7°C° 0 mm 3 m/s 759 mmHg 55%
    11:00 +7°C° 0 mm 3 m/s 758 mmHg 53%
    12:00 +8°C° 0 mm 3 m/s 758 mmHg 52%
    13:00 +8°C° 0 mm 3 m/s 758 mmHg 52%
    14:00 +9°C° 0 mm 3 m/s 758 mmHg 51%
    15:00 +9°C° 0 mm 3 m/s 758 mmHg 52%
    16:00 +9°C° 0 mm 3 m/s 757 mmHg 53%
    17:00 +8°C° 0 mm 3 m/s 757 mmHg 54%
    18:00 +7°C° 0 mm 3 m/s 758 mmHg 56%
    19:00 +5°C° 0 mm 4 m/s 758 mmHg 59%
    20:00 +4°C° 0 mm 4 m/s 758 mmHg 62%
    21:00 +3°C° 0 mm 3 m/s 758 mmHg 65%
    22:00 +2°C° 0 mm 3 m/s 758 mmHg 69%
    23:00 +1°C° 0 mm 3 m/s 758 mmHg 72%

    30 Aprilie, Marţi

    Timp Temperatura Precipitaţii Vânt Presiune Umiditate
    00:00 +2°C° 0 mm 3 m/s 758 mmHg 74%
    01:00 +2°C° 0 mm 3 m/s 758 mmHg 76%
    02:00 +1°C° 0 mm 4 m/s 759 mmHg 78%
    03:00 0°C° 0 mm 4 m/s 759 mmHg 77%
    04:00 -1°C° 0 mm 4 m/s 759 mmHg 76%
    05:00 0°C° 0 mm 3 m/s 759 mmHg 75%
    06:00 0°C° 0 mm 3 m/s 759 mmHg 70%
    07:00 0°C° 0 mm 3 m/s 759 mmHg 64%
    08:00 +1°C° 0 mm 3 m/s 759 mmHg 58%
    09:00 +1°C° 0 mm 3 m/s 759 mmHg 55%
    10:00 +3°C° 0 mm 2 m/s 759 mmHg 51%
    11:00 +4°C° 0 mm 2 m/s 759 mmHg 48%
    12:00 +4°C° 0 mm 2 m/s 759 mmHg 46%
    13:00 +6°C° 0 mm 1 m/s 758 mmHg 44%
    14:00 +6°C° 0 mm 1 m/s 758 mmHg 42%
    15:00 +6°C° 0 mm 1 m/s 757 mmHg 42%
    16:00 +6°C° 0 mm 1 m/s 757 mmHg 43%
    17:00 +6°C° 0 mm 1 m/s 756 mmHg 43%
    18:00 +5°C° 0 mm 1 m/s 756 mmHg 49%
    19:00 +3°C° 0 mm 2 m/s 755 mmHg 54%
    20:00 +1°C° 0 mm 3 m/s 755 mmHg 60%
    21:00 0°C° 0 mm 3 m/s 754 mmHg 63%
    22:00 -1°C° 0 mm 3 m/s 754 mmHg 66%
    23:00 -1°C° 0 mm 3 m/s 753 mmHg 69%
    Arată mai mult